Regional Weather Roundup
Issued by NWS

Home | Current Version | Previous Version | Text Only | Print | Product List | Glossary On
Versions: 1 2 3 4 5 6 7 8 9 10 11 12 13 14 15 16 17 18 19 20 21 22 23 24 25 26 27 28 29 30 31 32 33 34 35 36 37 38 39 40 41 42 43 44 45 46 47 48 49 50
000
ASUS45 KSLC 080110
RWRUT

UTAH REGIONAL WEATHER ROUNDUP
NATIONAL WEATHER SERVICE SALT LAKE CITY UT
600 PM MST SUN FEB 07 2016

UTZ001>011-023>025-080200-

NORTHERN UTAH

CITY           SKY/WX    TMP DP  RH WIND       PRES   REMARKS
BRIGHAM CITY   MOCLDY    26  21  80 N3        30.62S
HILL AFB       PTCLDY    31  23  70 NW6       30.59S WCI  26
LOGAN          MOCLDY    24  18  77 N3        30.61R HAZE
OGDEN          PTCLDY    31  25  78 NW3       30.59S
PROVO AIRPORT  PTCLDY    28  18  64 VRB3      30.60F
SALT LAKE CITY MOCLDY    33  27  78 N7        30.60S WCI  27
VERNAL         CLOUDY    17  10  74 CALM      30.52R
WENDOVER       PTCLDY    37  27  65 S5        30.60F WCI  34
HEBER CITY     MOCLDY    19  14  79 CALM      30.54S
WEST JORDAN    CLEAR     34  27  75 NW5       30.60S WCI  30

$$

UTZ012>022-026-027-080200-

SOUTHERN/CENTRAL UTAH

CITY           SKY/WX    TMP DP  RH WIND       PRES   REMARKS
BLANDING       PTCLDY    38  21  51 NW5       30.48S WCI  34
BRYCE CANYON   PTCLDY    30  12  47 N17       30.49S WCI  18
CEDAR CITY     PTCLDY    34  19  54 N10       30.50S WCI  26
DELTA          CLOUDY    19  16  90 CALM      30.61R
HANKSVILLE     MOCLDY    28  21  74 CALM      30.53S
MILFORD        CLOUDY    20  32 100 NE6       30.56S WCI  12
MOAB/CYNLANDS  MOCLDY    21  15  78 CALM      30.51R
PRICE          MOCLDY    29  17  61 SE3       30.47R
ST GEORGE      MOCLDY    55  19  24 NE16      30.40R
KANAB          CLEAR     48  27  43 CALM      30.45R

$$

REGIONAL REPORTS     COLORADO/ARIZONA

CITY           SKY/WX    TMP DP  RH WIND       PRES   REMARKS
CRAIG, CO      CLOUDY    13   6  74 CALM      30.49R
GRAND JUNCTION CLOUDY    23  18  81 CALM      30.50R
RIFLE          CLOUDY    26  15  63 S5        30.49R WCI  20
MONTROSE       CLOUDY    31  19  61 N3        30.49R
CORTEZ         CLOUDY    41  20  43 SE5       30.38R
PAGE, AZ       CLEAR     42  23  46 NE3       30.45S
GRAND CANYON   CLEAR     43  16  33 NE9       30.45R
KINGMAN        CLEAR     59  22  24 N16       30.30R
FLAGSTAFF      PTCLDY    41  16  36 NE10      30.41R

$$

REGIONAL REPORTS    NEVADA/IDAHO/WYOMING

CITY           SKY/WX    TMP DP  RH WIND       PRES   REMARKS
LAS VEGAS, NV  CLEAR     69  20  15 NE15      30.29R
ELY            PTCLDY    26  17  68 SW3       30.56S
ELKO           CLOUDY    29  18  63 E5        30.59R WCI  24
POCATELLO, ID  CLOUDY    27  22  81 NE7       30.61R WCI  19
BURLEY         MOCLDY    33  28  81 N3        30.58R
EVANSTON, WY   CLOUDY    25  16  68 SW13      30.54R WCI  14
ROCK SPRINGS   CLOUDY    29  20  69 W24G32    30.46R WCI  15

$$




USA.gov is the U.S. government's official web portal to all federal, state and local government web resources and services.